Flag for U.S.A. Weather past 2 weeks in Plano, Texas, U.S.A.

Now
61 °F

Overcast.


Feels Like: 61 °F
Forecast: 55 / 73 °F
Wind: 3 mph from East

Location: McKinney Municipal Airport


UV Index: 7 (High)

Visibility: 10 mi


Pressure: 30.19 "Hg

Humidity: 67%

Dew point: 50 °F

Location of PlanoLocation

Historic Weather in Plano

°F

Plano temperature yesterday

Maximum temperature yesterday: 65 °F (at 3:53 PM)
Minimum temperature yesterday: 38 °F (at 6:53 AM)
Average temperature yesterday: 54 °F

Past Weeks' High & Low Weather Summary

 TemperatureHumidityPressure
High82 °F (Apr 3, 4:53 PM)97% (Apr 6, 8:53 PM)30.35 "Hg (Apr 6, 8:53 PM)
Low32 °F (Apr 15, 5:53 AM)20% (Apr 15, 5:53 PM)29.54 "Hg (Apr 13, 6:53 PM)
Average59 °F66%29.98 "Hg
* Reported Apr 2 7:53 PM — Apr 17 7:53 PM, Plano, Weather by CustomWeather, © 2014

Note: Actual official high and low records may vary slightly from our data, if they occured in-between our weather recording intervals... More about our weather records

Advertising

Historic Weather Conditions — Data for Previous 24 hours

 ConditionsComfort  
Time TempWeatherWind HumidityBarometerVisibility
7:53 PM
Apr 17
60 °FOvercast.3 mph75%30.18 "Hg10 mi
6:53 PM61 °FOvercast.3 mph70%30.17 "Hg10 mi
5:53 PM62 °FMore clouds than sun.6 mph70%30.16 "Hg10 mi
4:53 PM62 °FOvercast.8 mph73%30.16 "Hg10 mi
3:53 PM63 °FOvercast.No wind68%30.15 "Hg10 mi
2:53 PM61 °FOvercast.8 mph75%30.16 "Hg10 mi
1:53 PM62 °FOvercast.9 mph70%30.17 "Hg10 mi
12:53 PM64 °FMostly cloudy.8 mph63%30.16 "Hg10 mi
11:53 AM62 °FOvercast.3 mph70%30.19 "Hg10 mi
10:53 AM58 °FMostly cloudy.3 mph75%30.18 "Hg10 mi
9:53 AM56 °FMostly cloudy.No wind77%30.18 "Hg10 mi
9:03 AM54 °FMore clouds than sun.No wind77%30.15 "Hg10 mi
8:53 AM52 °FMostly cloudy.No wind83%30.16 "Hg10 mi
7:53 AM48 °FPassing clouds.No wind86%30.15 "Hg10 mi
6:53 AM47 °FClear.3 mph86%30.12 "Hg10 mi
5:53 AM48 °FClear.3 mph80%30.11 "Hg10 mi
4:53 AM48 °FClear.5 mph77%30.09 "Hg10 mi
3:53 AM49 °FClear.3 mph74%30.09 "Hg10 mi
2:53 AM50 °FClear.6 mph71%30.09 "Hg10 mi
1:53 AM50 °FClear.5 mph68%30.08 "Hg10 mi
12:53 AM52 °FClear.3 mph64%30.07 "Hg10 mi
11:53 PM
Apr 16
54 °FClear.8 mph59%30.05 "Hg10 mi
10:53 PM54 °FClear.7 mph62%30.04 "Hg10 mi
9:53 PM56 °FClear.8 mph60%30.03 "Hg10 mi
Weather by CustomWeather, © 2014

See weather overview